PROGRESS-MS 24

Last updated on Wed Feb 14 2024 00:02:07 GMT+0000 (Coordinated Universal Time)

1 57691U 23125A 24043.51459821 .00024146 00000+0 43257-3 0 9999 2 57691 51.6404 218.1523 0001911 230.6128 226.8660 15.49814353 26917
UTC large
Height (km)
Speed (km/s)
/
Latitude / Longitude
Inclination (degrees)
Orbital Period (minutes)
Azimuth
Elevation
Range (km)
Doppler Factor

Next 0 passes for location: London (51.5072 / 0.1276)

Sorry there are no passes over London.
PROGRESS-MS 24